Weather History for Hettinger, ND

Change the Weather History Date:

Tuesday, September 10, 2013

  Actual Average Record
Temperature  
Mean Temperature 65 °F -  
Max Temperature 80 °F 75 °F 96 °F (1998)
Min Temperature 50 °F 44 °F 32 °F (1999)
Degree Days  
Heating Degree Days 0 7  
Month to date heating degree days 2 55  
Since 1 July heating degree days 21 145  
Cooling Degree Days 0 1  
Month to date cooling degree days 57 18  
Year to date cooling degree days 304 367  
Growing Degree Days 15 (Base 50)    
Moisture  
Dew Point 52 °F    
Average Humidity 68    
Maximum Humidity 96    
Minimum Humidity 32    
Precipitation  
Precipitation 0.00 in 0.06 in 4.02 in (2003)
Month to date precipitation 2.47 0.61  
Year to date precipitation 19.07 12.90  
Sea Level Pressure  
Sea Level Pressure 30.02 in    
Wind  
Wind Speed 5 mph (WNW)    
Max Wind Speed 14 mph    
Max Gust Speed 20 mph    
Visibility 10 miles    
Events      
T = Trace of Precipitation, MM = Missing Value Source: NWS Daily Summary

Daily Weather History Graph

Daily Weather History Graph

Search for Another Location

Airport:

Trip Planner

Search our weather history database for the weather conditions in past years. The results will help you decide how hot, cold, wet, or windy it might be!

Date:

Astronomy

Sep. 10, 2013 Rise Set
Actual Time 6:22 AM MDT 7:11 PM MDT
Civil Twilight 5:52 AM MDT 7:41 PM MDT
Nautical Twilight 5:16 AM MDT 8:17 PM MDT
Astronomical Twilight 4:38 AM MDT 8:54 PM MDT
Moon 12:10 PM MDT (9/10) 9:56 PM MDT (9/10)
Length of Visible Light 13h 48m
Length of Day
12h 48m
Waxing Crescent, 29% of the Moon is Illuminated
Sep 10
Waxing Crescent
Sep 12
First Quarter
Sep 19
Full
Sep 26
Last Quarter
Oct 4
New

Hourly Weather History & Observations

Time (MDT) Temp. Dew Point Humidity Pressure Visibility Wind Dir Wind Speed Gust Speed Precip Events Conditions
12:53 AM 54.0 °F 51.1 °F 90% 29.91 in 10.0 mi WNW 6.9 mph - N/A   Clear
1:53 AM 54.0 °F 51.1 °F 90% 29.93 in 10.0 mi NW 3.5 mph - N/A   Clear
2:53 AM 52.0 °F 50.0 °F 93% 29.95 in 10.0 mi West 3.5 mph - N/A   Clear
3:53 AM 53.1 °F 50.0 °F 89% 29.96 in 10.0 mi NW 6.9 mph - N/A   Clear
4:53 AM 51.1 °F 50.0 °F 96% 29.97 in 10.0 mi WNW 4.6 mph - N/A   Clear
5:53 AM 51.1 °F 50.0 °F 96% 29.99 in 10.0 mi WNW 6.9 mph - N/A   Clear
6:53 AM 52.0 °F 50.0 °F 93% 30.01 in 10.0 mi WNW 4.6 mph - N/A   Clear
7:53 AM 57.9 °F 55.0 °F 90% 30.01 in 10.0 mi WNW 6.9 mph - 0.01 in   Clear
8:53 AM 64.0 °F 55.9 °F 75% 30.02 in 10.0 mi WNW 9.2 mph - N/A   Clear
9:53 AM 66.9 °F 55.0 °F 66% 30.04 in 10.0 mi West 9.2 mph - N/A   Clear
10:53 AM 72.0 °F 55.9 °F 57% 30.04 in 10.0 mi WNW 8.1 mph - N/A   Clear
11:53 AM 73.9 °F 53.1 °F 48% 30.03 in 10.0 mi WNW 6.9 mph 19.6 mph N/A   Clear
12:53 PM 75.9 °F 51.1 °F 42% 30.03 in 10.0 mi WNW 8.1 mph 17.3 mph N/A   Clear
1:53 PM 75.9 °F 52.0 °F 43% 30.03 in 10.0 mi WNW 8.1 mph - N/A   Clear
2:53 PM 77.0 °F 50.0 °F 39% 30.02 in 10.0 mi West 4.6 mph - N/A   Partly Cloudy
3:53 PM 78.1 °F 48.9 °F 36% 30.02 in 10.0 mi NW 6.9 mph - N/A   Clear
4:53 PM 79.0 °F 46.0 °F 31% 30.01 in 10.0 mi WNW 6.9 mph - N/A   Clear
5:53 PM 78.1 °F 48.0 °F 35% 30.02 in 10.0 mi WNW 4.6 mph - N/A   Clear
6:53 PM 71.1 °F 55.9 °F 59% 30.04 in 10.0 mi Calm Calm - N/A   Clear
7:53 PM 66.9 °F 52.0 °F 59% 30.06 in 10.0 mi Calm Calm - N/A   Scattered Clouds
8:53 PM 62.1 °F 51.1 °F 67% 30.07 in 10.0 mi Calm Calm - N/A   Partly Cloudy
9:53 PM 62.1 °F 54.0 °F 75% 30.07 in 10.0 mi WNW 3.5 mph - N/A   Mostly Cloudy
10:53 PM 59.0 °F 53.1 °F 81% 30.08 in 10.0 mi West 4.6 mph - N/A   Clear
11:53 PM 57.9 °F 53.1 °F 84% 30.09 in 10.0 mi Calm Calm - N/A   Clear